World > North America > United States > Vermont > Essex  

Essex, VT Hourly Weather Updates

Feedback E-mail the Weather

Quick Clicks

Essex, VT Weather Maps

°F °C°F °C
Essex Weather Map
UTC Time: 6/21/2024, 05:14
Your Time:

Essex, VT Regional Weather

Expires:202406210600;;388389
ASUS41 KBOX 210510
RWRBOX

REGIONAL WEATHER ROUNDUP
NATIONAL WEATHER SERVICE BOSTON/NORTON MA
100 AM EDT FRI JUN 21 2024

NOTE:  "FAIR" INDICATES FEW OR NO CLOUDS BELOW 12,000 FEET WITH NO 
SIGNIFICANT WEATHER AND/OR OBSTRUCTIONS TO VISIBILITY.


MEZ002-015-021-024-NHZ003-005-008-011-012-014-VTZ005-008-210600-
NORTHERN NEW ENGLAND
  
CITY           SKY/WX    TMP DP  RH WIND       PRES   REMARKS
PORTLAND ME    PTCLDY    72  72 100 W5        30.15F                  
BANGOR ME      CLOUDY    73  71  93 W6        30.13S                  
CONCORD NH     FOG       69  69 100 CALM      30.18F VSB 3/4          
MANCHESTER NH  MOCLDY    73  69  87 CALM      30.17F                  
NASHUA NH      PTCLDY    71  32  23 CALM      30.19F                  
PORTSMOUTH NH  MOCLDY    73  71  93 CALM      30.14F                  
JAFFREY NH     PTCLDY    70  67  90 CALM      30.23F                  
KEENE NH       CLOUDY    69  68  96 CALM      30.22F                  
BURLINGTON VT  MOCLDY    73  71  93 CALM      30.21F                  
MT. WASHINGTON LGT RAIN  55  55 100 NW36        N/A  VSB 1/16         
$$


SKY/WX - Weather  TMP - Temperature  DP - Dew Point  RH - Humidity
WIND - Wind Direction/Speed PRES - Barometric Pressure VSB - Visibility
WCI - Wind Chill Index E13G22 Wind - East Wind 13 mph/Gusts of 22 mph

Trending Headlines

Trending Entertainment Headlines

Essex Radar Loop

Use the map search tool if you want to place a location marker on the radar map...

Essex Quick Facts

National Two Day Weather Forecast


E-mail the Essex Weather Forecast

Voice your opinion or tell us about page issues...